DW0307 Weather Reports


time (UTC)temp
C
wind
direction
speed
KPH
gust
KPH
rain 1hr
cm
rain 24hr
cm
rain mn
cm
humidity
%
barometer
mb
20260903094610 21 38 8.0 16.1 0.00 0.08 0.08 55 1020.2
20260903093053 21 77 4.8 12.9 0.00 0.08 0.08 56 1020.4
20260903091607 21 89 4.8 12.9 0.00 0.08 0.08 56 1020.6
20260903090058 22 221 0.0 8.0 0.00 0.08 0.08 60 1020.6
20260903084554 20 304 1.6 9.7 0.00 0.08 0.08 67 1020.7
20260903083109 18 124 0.0 6.4 0.00 0.08 0.08 69 1020.8
20260903081601 18 113 0.0 3.2 0.00 0.08 0.08 72 1020.7
20260903080047 17 113 0.0 6.4 0.00 0.08 0.08 74 1020.8
20260903074553 17 133 1.6 6.4 0.00 0.08 0.08 73 1020.7
20260903073115 17 0 0.0 4.8 0.00 0.08 0.08 74 1020.6
20260903071553 16 134 3.2 6.4 0.00 0.08 0.08 76 1020.8
20260903070108 16 0 0.0 6.4 0.00 0.08 0.08 73 1020.8
20260903064556 17 231 4.8 8.0 0.00 0.08 0.08 73 1020.8
20260903063100 16 236 4.8 11.3 0.00 0.08 0.08 78 1020.9
20260903061603 15 266 0.0 12.9 0.00 0.08 0.08 80 1020.9
20260903060058 14 269 12.9 17.7 0.00 0.08 0.08 81 1020.7
20260903054555 14 197 4.8 11.3 0.00 0.08 0.08 83 1020.8
20260903053050 14 244 0.0 4.8 0.00 0.08 0.08 88 1020.8
20260903051601 12 244 0.0 3.2 0.00 0.08 0.08 89 1020.8
20260903050059 11 244 3.2 6.4 0.00 0.08 0.08 89 1020.7
20260903044551 10 0 3.2 9.7 0.00 0.08 0.08 89 1020.9
20260903043130 11 256 0.0 14.5 0.00 0.08 0.08 89 1021.0
20260903041556 10 261 17.7 22.5 0.00 0.08 0.08 89 1021.0
20260903040115 10 276 3.2 12.9 0.00 0.08 0.08 89 1020.9
20260903034548 10 230 3.2 6.4 0.08 0.08 0.08 89 1021.0
20260903033101 10 230 4.8 6.4 0.08 0.08 0.08 89 1021.0
20260903031554 10 261 0.0 12.9 0.08 0.08 0.08 89 1021.2
20260903030104 9 113 6.4 9.7 0.08 0.08 0.08 90 1020.9
20260903024601 7 286 6.4 11.3 0.00 0.00 0.00 89 1021.1
20260903023054 7 0 0.0 1.6 0.00 0.00 0.00 88 1020.7
20260903021552 7 0 1.6 6.4 0.00 0.00 0.00 88 1020.7
20260903020056 7 260 0.0 4.8 0.00 0.00 0.00 89 1020.8
20260903014557 6 0 0.0 4.8 0.00 0.00 0.00 88 1020.8
20260903013053 6 0 0.0 0.0 0.00 0.00 0.00 88 1020.9
20260903011557 6 259 3.2 4.8 0.00 0.00 0.00 87 1021.1
20260903010104 6 0 0.0 1.6 0.00 0.00 0.00 87 1021.3
20260903004619 6 0 0.0 4.8 0.00 0.00 0.00 87 1021.4
20260903003048 7 0 0.0 3.2 0.00 0.00 0.00 87 1021.5
20260903001555 7 259 3.2 4.8 0.00 0.00 0.00 87 1021.5
20260903000052 7 259 3.2 6.4 0.00 0.00 0.00 86 1021.4
20260902234549 8 0 0.0 4.8 0.00 0.00 0.00 86 1021.5
20260902233102 8 0 0.0 3.2 0.00 0.00 0.00 86 1021.5
20260902231552 8 0 0.0 3.2 0.00 0.00 0.00 86 1021.7
20260902230050 8 0 0.0 0.0 0.00 0.00 0.00 86 1021.7
20260902224554 8 0 0.0 1.6 0.00 0.00 0.00 86 1021.9
20260902223115 8 0 0.0 3.2 0.00 0.00 0.00 85 1021.8
20260902221554 8 0 0.0 3.2 0.00 0.00 0.00 85 1021.9
20260902220057 8 0 0.0 3.2 0.00 0.00 0.00 85 1022.0
20260902214604 8 0 0.0 3.2 0.00 0.00 0.00 84 1021.9
20260902213100 8 259 3.2 4.8 0.00 0.00 0.00 83 1021.9
20260902211556 10 0 0.0 0.0 0.00 0.00 0.00 83 1021.7
20260902210054 10 0 0.0 0.0 0.00 0.00 0.00 82 1021.8
20260902204637 10 0 0.0 0.0 0.00 0.00 0.00 82 1021.8
20260902203100 11 259 0.0 3.2 0.00 0.00 0.00 82 1021.6
20260902201554 11 0 0.0 3.2 0.00 0.00 0.00 82 1021.7
20260902200055 11 259 0.0 3.2 0.00 0.00 0.00 81 1021.7
20260902194549 12 259 1.6 4.8 0.00 0.00 0.00 82 1021.6
20260902193057 12 259 3.2 9.7 0.00 0.00 0.00 81 1021.8
20260902191553 12 254 1.6 6.4 0.00 0.00 0.00 79 1021.8
20260902190055 13 246 1.6 4.8 0.00 0.00 0.00 78 1021.8
20260902184548 13 246 0.0 4.8 0.00 0.00 0.00 78 1021.8
20260902183111 13 244 3.2 6.4 0.00 0.00 0.00 78 1021.7
20260902181602 14 244 1.6 6.4 0.00 0.00 0.00 75 1021.8
20260902180051 15 305 6.4 8.0 0.00 0.00 0.00 74 1021.6
20260902174551 15 303 4.8 8.0 0.00 0.00 0.00 71 1021.3
20260902173104 17 302 3.2 6.4 0.00 0.00 0.00 66 1021.3
20260902171606 18 57 6.4 9.7 0.00 0.00 0.00 63 1021.0
20260902170056 19 24 6.4 11.3 0.00 0.00 0.00 62 1021.1
20260902164602 20 50 6.4 14.5 0.00 0.00 0.00 56 1021.1
20260902163051 20 332 4.8 8.0 0.00 0.00 0.00 57 1021.1
20260902161551 20 58 3.2 8.0 0.00 0.00 0.00 55 1020.9
20260902160056 20 41 4.8 9.7 0.00 0.00 0.00 54 1021.1
20260902154555 20 81 8.0 14.5 0.00 0.00 0.00 52 1021.0
20260902153059 21 88 8.0 16.1 0.00 0.00 0.00 50 1021.0
20260902151549 21 32 6.4 16.1 0.00 0.00 0.00 48 1021.1
20260902144552 21 360 12.9 19.3 0.00 0.00 0.00 47 1021.1
20260902143053 22 46 4.8 16.1 0.00 0.00 0.00 45 1021.1
20260902141549 23 242 8.0 24.1 0.00 0.00 0.00 38 1021.0
20260902140100 22 232 9.7 20.9 0.00 0.00 0.00 40 1021.0
20260902134554 23 238 16.1 30.6 0.00 0.00 0.00 37 1021.1
20260902133105 23 249 12.9 24.1 0.00 0.00 0.00 36 1021.1
20260902131549 23 259 14.5 22.5 0.00 0.00 0.00 41 1021.1
20260902124553 24 294 12.9 24.1 0.00 0.00 0.00 38 1021.3
20260902123053 24 263 11.3 22.5 0.00 0.00 0.00 41 1021.5
20260902121558 23 224 6.4 27.4 0.00 0.00 0.00 41 1021.6
20260902120057 23 302 17.7 25.7 0.00 0.00 0.00 43 1021.8
20260902114554 21 288 12.9 22.5 0.00 0.00 0.00 49 1021.9
20260902113049 21 352 1.6 11.3 0.00 0.00 0.00 47 1021.9
20260902111551 21 0 3.2 8.0 0.00 0.00 0.00 49 1022.1
20260902104605 20 329 1.6 8.0 0.00 0.00 0.00 49 1022.2
20260902103105 21 76 4.8 9.7 0.00 0.00 0.00 46 1022.4
20260902101604 21 44 6.4 12.9 0.00 0.00 0.00 47 1022.5